Regional Weather Roundup
Issued by NWS Goodland, KS

Home | Current Version | Previous Version | Graphics & Text | Print | Product List | Glossary On
Versions: 1 2 3 4 5 6 7 8 9 10 11 12 13 14 15 16 17 18 19 20 21 22 23 24 25 26 27 28 29 30 31 32 33 34 35 36 37 38 39 40 41 42 43 44 45 46 47 48 49 50
000
ASUS43 KGLD 272359
RWRGLD

GOODLAND FORECAST AREA HOURLY WEATHER ROUNDUP
NATIONAL WEATHER SERVICE GOODLAND KS
600 PM MDT FRI MAR 27 2015

...OFFICIAL OBSERVATIONS...

CITY           SKY/WX    TMP DP  RH WIND       PRES   REMARKS
GOODLAND KS    MOSUNNY   64  35  34 N6        30.00S
HILL CITY KS   MOSUNNY   62  36  37 S13       29.98F
IMPERIAL NEB     N/A     69  35  28 NW13      29.95F
MCCOOK NEB     PTSUNNY   67  37  33 SW9       29.92F
AKRON CO       PTSUNNY   64  31  28 N14       30.03R
BURLINGTON CO  CLOUDY    68  33  27 NE9       30.02S
LIMON CO       NOT AVBL
$$

...UNOFFICIAL OBSERVATIONS...

CITY           SKY/WX    TMP DP  RH WIND       PRES   REMARKS
COLBY KS       MOSUNNY   70  39  32 NW9G18    29.98F
GOVE KS          N/A     66  32  28 MISG        N/A
LENORA KS        N/A     59  32  36 MISG        N/A
NORTON KS      SUNNY     57  30  35 SE12      29.95F
SHARON SPRINGS   N/A     69  35  29 N10         N/A
TRIBUNE KS     MOSUNNY   70  45  40 W8        30.03F
KIT CARSON CO    N/A     71  33  25 MISG        N/A
YUMA CO          N/A     68  29  23 N16         N/A
$$



USA.gov is the U.S. government's official web portal to all federal, state and local government web resources and services.